Regional Weather Roundup
Issued by NWS

Home | Current Version | Previous Version | Text Only | Print | Product List | Glossary On
Versions: 1 2 3 4 5 6 7 8 9 10 11 12 13 14 15 16 17 18 19 20 21 22 23 24 25 26 27 28 29 30 31 32 33 34 35 36 37 38 39 40 41 42 43 44 45 46 47 48 49 50
000
ASUS43 KDTX 261601
RWRMI
MICHIGAN HOURLY REGIONAL WEATHER ROUNDUP
NATIONAL WEATHER SERVICE DETROIT/PONTIAC MI
1200 PM EDT FRI AUG 26 2016

NOTE: "FAIR" INDICATES FEW OR NO CLOUDS BELOW 12,000 FEET WITH NO
SIGNIFICANT WEATHER AND/OR OBSTRUCTION TO VISIBILITY.

MIZ047>049-052>055-059>063-066>070-074>076-081>083-261700-
SOUTHEAST LOWER MICHIGAN

CITY           SKY/WX    TMP DP  RH WIND       PRES   REMARKS
ADRIAN         MOSUNNY   78  64  61 VRB5      30.18S
ALMA           SUNNY     76  62  62 W9        30.16S
ANN ARBOR      SUNNY     79  63  57 W6        30.16S
BAD AXE        MOSUNNY   74  63  67 W6        30.14S
CARO           MOSUNNY   75  66  72 SW6       30.14S
DETROIT CITY   SUNNY     79  63  57 VRB5      30.15S
DETROIT        PTSUNNY   80  63  55 NW6       30.16S
FLINT          PTSUNNY   79  62  56 W10       30.16R
GROSSE ILE     SUNNY     79  62  55 CALM      30.15F
HILLSDALE      MOSUNNY   77  64  64 CALM      30.19R
HOWELL         MOSUNNY   77  62  59 NW3       30.17S

CITY           SKY/WX    TMP DP  RH WIND       PRES   REMARKS
JACKSON        CLOUDY    76  62  62 W7        30.18R
LAMBERTVILLE   SUNNY     80  64  57 N5        30.17S
LANSING        SUNNY     76  58  53 VRB5      30.17S
LAPEER         FAIR      77  62  58 W8        30.16S
MASON          MOSUNNY   76  62  62 W5        30.17S
MONROE         SUNNY     79  67  66 W8        30.16S
MT. CLEMENS    PTSUNNY   81  64  56 VRB2      30.13S
PONTIAC        PTSUNNY   76  62  62 W7        30.15S
PORT HURON     SUNNY     77  64  65 NW5       30.15S
TRI CITIES     SUNNY     75  63  66 SW9       30.15S
MIDLAND        FAIR      75  60  59 SW7       30.14S
TROY           SUNNY     80  58  46 SW7       30.17S
SAGINAW HB     MOSUNNY   77  61  57 SW5       30.14S
$$
MIZ043>046-050>051-056>058-064>065-071>073-077>080-261700-
SOUTHWEST LOWER MICHIGAN

CITY           SKY/WX    TMP DP  RH WIND       PRES   REMARKS
BATTLE CREEK   SUNNY     74  62  66 W6        30.19S
BENTON HARBOR  SUNNY     77  63  61 CALM      30.18S
BIG RAPIDS     SUNNY     74  57  54 W7        30.16S
COLDWATER      MOSUNNY   77  64  62 CALM      30.18S
FREMONT        FAIR      73  56  55 NW6       30.16F
HOLLAND        SUNNY     76  62  62 VRB6      30.19R
GRAND RAPIDS   PTSUNNY   76  59  55 W6        30.17F
IONIA          FAIR      75  58  55 W7        30.16S
KALAMAZOO      MOSUNNY   77  62  59 VRB3      30.18S
LUDINGTON      MOSUNNY   70  60  68 W7        30.16S
MARSHALL       MOSUNNY   75  63  64 W3        30.18S
MOUNT PLEASANT SUNNY     76  61  59 SW7       30.15S
MUSKEGON       MOSUNNY   76  59  55 W10       30.18R
SOUTH HAVEN    SUNNY     78  64  61 NW5       30.18S
$$
MIZ016>042-261700-
NORTHERN LOWER MICHIGAN

CITY           SKY/WX    TMP DP  RH WIND       PRES   REMARKS
ALPENA         PTSUNNY   73  55  53 NW7       30.12R
BEAVER ISLAND  MOSUNNY   70  60  70 W9        30.13R
BELLAIRE       PTSUNNY   72  58  62 NW6       30.14R
CADILLAC       MOSUNNY   73  56  56 W8        30.16R
CHARLEVOIX     PTSUNNY   69  60  71 W13       30.16R
FRANKFORT      MOSUNNY   71  59  67 W10       30.15S
GAYLORD        PTSUNNY   72  53  51 SW15      30.14R
GRAYLING       MOSUNNY   74  58  56 SW8       30.15S
HARBOR SPRINGS SUNNY     72  61  67 W7        30.12R
HOUGHTON LAKE  SUNNY     72  58  61 W8        30.16R
MANISTEE       PTSUNNY   70  60  70 W8        30.16R
OSCODA         MOSUNNY   77  57  50 SW8       30.12R
PELLSTON       CLOUDY    71  56  58 SW8G18    30.12R
ROGERS CITY    MOSUNNY   74  57  54 W8        30.12S
TRAVERSE CITY  PTSUNNY   74  55  51 W10       30.12S
$$
MIZ007>008-015-261700-
EASTERN UPPER MICHIGAN

CITY           SKY/WX    TMP DP  RH WIND       PRES   REMARKS
KINROSS        PTSUNNY   69  58  67 SW7       30.10S
MACKINAC ISLAN MOSUNNY   69  59  71 W13       30.11R
NEWBERRY       CLOUDY    69  59  70 W6        30.10S
S. S. MARIE    MOSUNNY   71  60  68 W9        30.08S
MUNISING         N/A     66  61  84 NW12      30.11R
$$
MIZ004>006-011>014-085-261700-
CENTRAL UPPER MICHIGAN

CITY           SKY/WX    TMP DP  RH WIND       PRES   REMARKS
MANISTIQUE     CLOUDY    71  59  66 CALM      30.11S
ESCANABA       PTSUNNY   69  57  65 W7        30.12S
MENOMINEE      SUNNY    N/A N/A N/A VRB5      30.14F
SAWYER-GWINN   RAIN      59  57  94 N7        30.14R
$$
MIZ001>003-009>011-084-261700-
WESTERN UPPER MICHIGAN

CITY           SKY/WX    TMP DP  RH WIND       PRES   REMARKS
IRON MOUNTAIN  PTSUNNY   66  54  65 NW10      30.14R
HOUGHTON       PTSUNNY   64  52  64 NW12      30.13R
COPPER HARBOR    N/A     62  56  80 NE6       30.12R
IRONWOOD       MOSUNNY   63  50  62 NW13      30.17S
$$

ABBREVIATIONS USED IN REMARKS
   TC - TEMPERATURE IN CELSIUS
  WCI - WIND CHILL INDEX
   HX - HEAT INDEX
  VSB - VISIBILITY





USA.gov is the U.S. government's official web portal to all federal, state and local government web resources and services.